FW0693 Weather Reports


time (UTC)temp
C
wind
direction
speed
KPH
gust
KPH
rain 1hr
cm
rain 24hr
cm
rain mn
cm
humidity
%
barometer
mb
20260503054524 11 165 0.0 3.2 0.00 0.05 0.00 92 1011.3
20260503053049 11 165 0.0 3.2 0.00 0.05 0.00 91 1011.4
20260503051521 11 165 0.0 3.2 0.00 0.05 0.00 91 1011.5
20260503050051 11 148 1.6 4.8 0.00 0.05 0.00 91 1011.4
20260503044520 11 164 1.6 8.0 0.00 0.05 0.00 91 1011.6
20260503043051 11 164 1.6 4.8 0.00 0.05 0.00 91 1011.6
20260503041515 11 161 3.2 4.8 0.00 0.05 0.00 91 1011.6
20260503040039 11 155 0.0 0.0 0.00 0.05 0.00 91 1011.6
20260503034507 11 155 0.0 1.6 0.00 0.05 0.00 91 1011.7
20260503033032 11 156 0.0 1.6 0.00 0.05 0.00 91 1011.8
20260503031557 11 156 0.0 1.6 0.00 0.05 0.00 91 1011.7
20260503030039 11 155 3.2 4.8 0.00 0.05 0.00 90 1011.7
20260503024557 11 158 3.2 8.0 0.00 0.05 0.00 91 1011.8
20260503023027 11 134 0.0 3.2 0.00 0.05 0.00 90 1011.8
20260503021557 12 135 1.6 3.2 0.00 0.05 0.00 90 1012.0
20260503020023 12 135 0.0 0.0 0.00 0.05 0.00 90 1012.1
20260503014604 12 135 0.0 0.0 0.00 0.05 0.00 90 1012.2
20260503013013 12 135 0.0 0.0 0.00 0.05 0.00 90 1012.3
20260503011539 12 135 0.0 0.0 0.00 0.05 0.00 90 1012.4
20260503010023 12 135 1.6 4.8 0.00 0.05 0.00 90 1012.5
20260503004550 12 135 0.0 3.2 0.00 0.05 0.00 89 1012.7
20260503003038 12 135 0.0 0.0 0.00 0.05 0.00 89 1012.8
20260503001556 12 135 0.0 0.0 0.00 0.05 0.00 89 1012.8
20260503000104 12 135 0.0 3.2 0.00 0.05 0.00 89 1013.0
20260502234531 13 135 0.0 0.0 0.00 0.05 0.00 89 1013.0
20260502233052 13 135 0.0 0.0 0.00 0.05 0.00 89 1013.0
20260502231523 13 135 0.0 0.0 0.00 0.05 0.00 89 1013.1
20260502230045 13 136 0.0 1.6 0.00 0.05 0.00 89 1013.0
20260502224521 13 135 0.0 1.6 0.00 0.05 0.00 88 1013.1
20260502223003 13 135 1.6 3.2 0.00 0.05 0.00 88 1013.2
20260502221550 13 135 0.0 3.2 0.00 0.05 0.00 88 1013.2
20260502220035 13 134 0.0 3.2 0.00 0.05 0.00 88 1013.3
20260502214507 13 135 3.2 6.4 0.00 0.05 0.05 87 1013.4
20260502213040 13 134 3.2 6.4 0.00 0.05 0.05 87 1013.4
20260502211509 13 144 1.6 6.4 0.00 0.05 0.05 87 1013.4
20260502210031 13 145 3.2 6.4 0.00 0.05 0.05 86 1013.4
20260502204551 14 126 3.2 6.4 0.00 0.05 0.05 85 1013.5
20260502203009 14 103 3.2 4.8 0.00 0.05 0.05 83 1013.6
20260502201542 15 48 0.0 1.6 0.00 0.05 0.05 81 1013.7
20260502200007 15 47 0.0 3.2 0.00 0.05 0.05 80 1013.6
20260502194531 16 47 1.6 4.8 0.00 0.05 0.05 79 1013.5
20260502193058 16 67 3.2 4.8 0.00 0.05 0.05 78 1013.4
20260502191510 17 127 0.0 4.8 0.00 0.05 0.05 76 1013.4
20260502190045 17 128 3.2 11.3 0.00 0.05 0.05 76 1013.5
20260502184505 17 124 6.4 11.3 0.00 0.05 0.05 75 1013.6
20260502183029 17 136 4.8 12.9 0.00 0.05 0.05 74 1013.5
20260502181600 17 107 8.0 17.7 0.05 0.05 0.05 73 1013.6
20260502163029 23 163 4.8 14.5 0.00 0.03 0.03 54 1013.7
20260502161543 24 213 3.2 11.3 0.00 0.03 0.03 53 1013.8
20260502151608 25 205 4.8 14.5 0.00 0.03 0.03 51 1014.4
20260502123026 23 183 3.2 27.4 0.00 0.03 0.03 60 1017.0
20260502121550 22 209 4.8 16.1 0.00 0.03 0.03 59 1017.3
20260502114513 23 147 6.4 12.9 0.00 0.03 0.03 59 1017.6
20260502113043 22 192 3.2 11.3 0.00 0.03 0.03 60 1017.8
20260502111556 22 249 9.7 16.1 0.00 0.03 0.03 59 1018.1
20260502110023 22 217 4.8 16.1 0.00 0.03 0.03 59 1018.1
20260502104539 22 222 8.0 20.9 0.00 0.03 0.03 60 1018.1
20260502103010 22 263 11.3 20.9 0.00 0.03 0.03 61 1018.3
20260502101603 22 186 11.3 20.9 0.00 0.03 0.03 61 1018.4
20260502091519 20 194 6.4 12.9 0.00 0.03 0.03 69 1018.9
20260502080103 15 140 3.2 8.0 0.00 0.03 0.03 72 1019.3
20260502070032 10 136 0.0 0.0 0.00 0.03 0.03 89 1019.5
20260502064514 10 136 0.0 3.2 0.00 0.03 0.03 89 1019.6
20260502063055 9 136 0.0 3.2 0.00 0.03 0.03 88 1019.7
20260502061532 8 137 1.6 4.8 0.00 0.03 0.03 88 1019.6
20260502060012 8 136 0.0 3.2 0.00 0.03 0.03 88 1019.7